Location: Riverside Cemetery
(38.3047°N, 99.7773°W)
Time: 01:20:37
(UTC+00:00)

Cosmos 2227 - Pass Details

Date: 19 September 2020
Orbit: 836 x 859 km, 71.0° (Epoch: 23 October)

Event Time Altitude Azimuth Distance (km) Brightness Sun altitude
Rises 11:22:17 0° 332° (NNW) 3,406 7.2 -13.0°
Reaches altitude 10° 11:24:48 10° 327° (NNW) 2,464 6.4 -12.5°
Maximum altitude 11:30:15 51° 253° (WSW) 1,047 4.3 -11.4°
Drops below altitude 10° 11:35:38 10° 179° (S) 2,440 6.5 -10.4°
Sets 11:38:07 0° 174° (S) 3,369 7.3 -9.9°
